User: anonymous   Login
Location: Unspecified
(0.0000°N, 0.0000°E)
Time: 16:03:33
(UTC+00:00)
Language:

A-11 Canister half - Orbit

View from above orbital plane
View from above orbital plane
View from above satellite
View from above satellite

Ground track
Ground track

The orbit data is extracted from the following two-line orbital elements,

1    51U 60009C   20292.43291477 -.00000125  00000-0 -39296-3 0  9995
2    51  47.2143 326.9508 0106616 170.0109 190.2829 12.18273870679079
Epoch (UTC): 18 October 2020 10:23:23
Eccentricity: 0.0106616
inclination: 47.2143°
perigee height: 1515 km
apogee height: 1685 km
right ascension of ascending node: 326.9508°
argument of perigee: 170.0109°
revolutions per day: 12.18273870
mean anomaly at epoch: 190.2829°
orbit number at epoch: 67907

The dashed part of the orbit path shows where the satellite is in the earth's shadow,  

DLR